ATLAS 5 CENTAUR DEB, 44694

Orbit data source: Space-Track

ATLAS 5 CENTAUR DEB, 44694 is space debris in HEO originally from a launch on Wed, 17 Oct 2018 UTC launched from the Air Force Eastern Test Range (AFETR). Debris objects in space refer to the collection of defunct objects orbiting the Earth. Examples of debris include non-operational satellites, rocket bodies, and fragments generated from explosions, collisions, or faulty payload assembly.

Loading next visibility...
Identifier
44694, 2018-079BG
Orbit
HEO
Country
Flag of USUS
Related business
Flag of USUnited Launch Alliance/Lockheed Martin (US)
Manufacturer
ULA Decatur
Mission
Spacecraft
Bus & Motor
Unknown
Mass
Unknown
Launch date (UTC)
2018-10-17 (8 years ago)
Launch vehicle
Unknown
Launch site
Air Force Eastern Test Range (AFETR)
Object type
Payload
Rocket body
Debris
Shape & HBR
Unknown shape, 1.1 m
Radar Cross Section
Medium (>0.1 m² and <1 m²)

Expand to show TLE details & history
Last TLE update: 2 days ago

TLE from 2 days ago
0 ATLAS 5 CENTAUR DEB
1 44694U 18079BG  26171.08341434 -.00000103  00000-0  00000+0 0  9990
2 44694  13.6268  39.0464 4720855 299.6835  21.5222  1.77424783 46618
Epoch: 2026-06-20T02:00Z
TLE epoch observation values (Epoch: 2026-06-20T02:00:06.998Z)
Latitude
0.0001°
Longitude
100.69722°
Altitude
11,806.898 km
Speed
5.478 km/s
True Right ascension
02h 36m 07s
True Declination
0° 00' 00"
Sunlit
Object was in daylight at epoch
Visualization orbit readout
Latitude
Unknown
Longitude
Unknown
Altitude
Unknown
Speed
Unknown
Apparent Right ascension
Unknown
Apparent Declination
Unknown
Sunlit
N/A
Visualization observer readout
Local Sidereal Time
23:27:14
Azimuth
Unknown
Elevation
Unknown
Doppler factor
Unknown
Orbital elements
Apogee altitude
36,053.498 km
Perigee altitude
8,838.557 km
Semi-major axis
28,824.165 km
Eccentricity
0.47209
Inclination
13.6268°
RAAN
39.0464°
Arg. of periapsis
299.6835°
True anomaly
60.18665°
Mean anomaly
21.5222°
Eccentric anomaly
38.27823°
Mean motion
0.44351 °/min
Orbital period
811.7 mins
BSTAR
0
Loading maneuver chart data...
Computing Atmospheric mass density...

Documentation

Showing up to 5 results
|